,,PA_Meas_PMT16A,,PR_Meas_QMR101_102,,RH_Meas_QMH101,,SR_Meas_QMS101,,TA_Meas_QMH101,,GenWind,,GenWind,
time,status,PA,status,PR,status,RH,status,SR,status,TA,status,DirAvg,status,SpdAvg,
2013-06-30, 00:00:04,VALID,918.758,VALID,0,VALID,94.0425,VALID,0.107441,VALID,21.3201,VALID,275,VALID,0,
2013-06-30, 00:01:04,VALID,918.713,VALID,0,VALID,94.0958,VALID,0,VALID,21.3201,VALID,275,VALID,0,
2013-06-30, 00:02:04,VALID,918.731,VALID,0,VALID,94.1416,VALID,0,VALID,21.3396,VALID,336,VALID,0,
2013-06-30, 00:03:04,VALID,918.75,VALID,0,VALID,94.073,VALID,0,VALID,21.3608,VALID,14,VALID,0,
2013-06-30, 00:04:04,VALID,918.795,VALID,0,VALID,94.1187,VALID,0,VALID,21.3396,VALID,14,VALID,0,
2013-06-30, 00:05:04,VALID,918.813,VALID,0,VALID,94.0577,VALID,0,VALID,21.3396,VALID,14,VALID,0,
2013-06-30, 00:06:04,VALID,918.863,VALID,0,VALID,94.0425,VALID,0.107441,VALID,21.3396,VALID,14,VALID,0,
2013-06-30, 00:07:04,VALID,918.891,VALID,0,VALID,93.9815,VALID,0,VALID,21.3396,VALID,7,VALID,0,
2013-06-30, 00:08:04,VALID,918.898,VALID,0,VALID,94.0043,VALID,0,VALID,21.3396,VALID,6,VALID,0,
2013-06-30, 00:09:04,VALID,918.901,VALID,0,VALID,94.0425,VALID,0,VALID,21.3396,VALID,6,VALID,0,
2013-06-30, 00:10:04,VALID,918.884,VALID,0,VALID,94.0348,VALID,0,VALID,21.3608,VALID,6,VALID,0,
2013-06-30, 00:11:04,VALID,918.881,VALID,0,VALID,93.9815,VALID,0,VALID,21.3396,VALID,288,VALID,0,
2013-06-30, 00:12:04,VALID,918.875,VALID,0,VALID,93.9891,VALID,0,VALID,21.3185,VALID,288,VALID,0,
2013-06-30, 00:13:04,VALID,918.856,VALID,0,VALID,93.9129,VALID,0,VALID,21.3201,VALID,288,VALID,0,
2013-06-30, 00:14:04,VALID,918.874,VALID,0,VALID,93.8061,VALID,0.107441,VALID,21.3006,VALID,262,VALID,0,
2013-06-30, 00:15:04,VALID,918.866,VALID,0,VALID,93.6994,VALID,0,VALID,21.3006,VALID,262,VALID,0,
2013-06-30, 00:16:04,VALID,918.914,VALID,0,VALID,93.6994,VALID,0.107441,VALID,21.3201,VALID,262,VALID,0,
2013-06-30, 00:17:04,VALID,918.886,VALID,0,VALID,93.6537,VALID,0,VALID,21.3201,VALID,263,VALID,0,
2013-06-30, 00:18:04,VALID,918.92,VALID,0,VALID,93.6918,VALID,0,VALID,21.3396,VALID,263,VALID,0,
2013-06-30, 00:19:04,VALID,918.916,VALID,0,VALID,93.6994,VALID,0.107441,VALID,21.3786,VALID,263,VALID,0,
2013-06-30, 00:20:04,VALID,918.983,VALID,0,VALID,93.6689,VALID,0,VALID,21.3998,VALID,263,VALID,0,
2013-06-30, 00:21:04,VALID,918.92,VALID,0,VALID,93.6384,VALID,0,VALID,21.4193,VALID,352,VALID,0,
2013-06-30, 00:22:04,VALID,918.96,VALID,0,VALID,93.5698,VALID,0,VALID,21.4193,VALID,354,VALID,0,
2013-06-30, 00:23:04,VALID,918.986,VALID,0,VALID,93.5469,VALID,0,VALID,21.3981,VALID,17,VALID,0,
2013-06-30, 00:24:04,VALID,919.033,VALID,0,VALID,93.6384,VALID,0,VALID,21.4177,VALID,17,VALID,0,
2013-06-30, 00:25:04,VALID,919.08,VALID,0,VALID,93.6918,VALID,0.107441,VALID,21.4177,VALID,17,VALID,0,
2013-06-30, 00:26:04,VALID,919.116,VALID,0,VALID,93.7451,VALID,0,VALID,21.4583,VALID,17,VALID,0,
2013-06-30, 00:27:04,VALID,919.143,VALID,0,VALID,93.6155,VALID,0,VALID,21.4177,VALID,17,VALID,0,
2013-06-30, 00:28:04,VALID,919.158,VALID,0,VALID,93.6003,VALID,0,VALID,21.4388,VALID,10,VALID,0,
2013-06-30, 00:29:04,VALID,919.168,VALID,0,VALID,93.5851,VALID,0.107441,VALID,21.3981,VALID,11,VALID,0,
2013-06-30, 00:30:04,VALID,919.135,VALID,0,VALID,93.5469,VALID,0,VALID,21.3591,VALID,20,VALID,0,
2013-06-30, 00:31:04,VALID,919.169,VALID,0,VALID,93.6842,VALID,0,VALID,21.3591,VALID,27,VALID,0,
2013-06-30, 00:32:04,VALID,919.157,VALID,0,VALID,93.829,VALID,0,VALID,21.3396,VALID,27,VALID,0,
2013-06-30, 00:33:04,VALID,919.147,VALID,0,VALID,93.768,VALID,0,VALID,21.3608,VALID,357,VALID,0,
2013-06-30, 00:34:04,VALID,919.136,VALID,0,VALID,93.8519,VALID,0,VALID,21.3006,VALID,12,VALID,0,
2013-06-30, 00:35:04,VALID,919.119,VALID,0,VALID,93.9738,VALID,0,VALID,21.3412,VALID,5,VALID,0,
2013-06-30, 00:36:04,VALID,919.101,VALID,0,VALID,93.9891,VALID,0.107441,VALID,21.3006,VALID,356,VALID,0,
2013-06-30, 00:37:04,VALID,919.041,VALID,0,VALID,94.0882,VALID,0.107441,VALID,21.3006,VALID,3,VALID,0,
2013-06-30, 00:38:04,VALID,919.03,VALID,0,VALID,94.1034,VALID,0,VALID,21.3201,VALID,3,VALID,0,
2013-06-30, 00:39:04,VALID,919.024,VALID,0,VALID,94.0882,VALID,0,VALID,21.3201,VALID,3,VALID,0,
2013-06-30, 00:40:04,VALID,919.003,VALID,0,VALID,94.073,VALID,0,VALID,21.3396,VALID,36,VALID,0,
2013-06-30, 00:41:04,VALID,919.025,VALID,0,VALID,94.0425,VALID,0,VALID,21.3591,VALID,36,VALID,0,
2013-06-30, 00:42:04,VALID,919.039,VALID,0,VALID,93.8138,VALID,0,VALID,21.3396,VALID,23,VALID,0,
2013-06-30, 00:43:04,VALID,919.029,VALID,0,VALID,93.7833,VALID,0,VALID,21.3608,VALID,27,VALID,0,
2013-06-30, 00:44:04,VALID,919.021,VALID,0,VALID,93.646,VALID,0,VALID,21.3396,VALID,16,VALID,0,
2013-06-30, 00:45:04,VALID,919.027,VALID,0,VALID,93.5622,VALID,0,VALID,21.3412,VALID,359,VALID,0,
2013-06-30, 00:46:04,VALID,919.003,VALID,0,VALID,93.4707,VALID,0,VALID,21.3412,VALID,6,VALID,0,
2013-06-30, 00:47:04,VALID,919.023,VALID,0,VALID,93.5164,VALID,0,VALID,21.3006,VALID,6,VALID,0,
2013-06-30, 00:48:04,VALID,918.992,VALID,0,VALID,93.4859,VALID,0,VALID,21.3217,VALID,6,VALID,0,
2013-06-30, 00:49:04,VALID,919.006,VALID,0,VALID,93.5241,VALID,0,VALID,21.3217,VALID,6,VALID,0,
2013-06-30, 00:50:05,VALID,919.019,VALID,0,VALID,93.5393,VALID,0,VALID,21.3412,VALID,6,VALID,0,
2013-06-30, 00:51:05,VALID,918.933,VALID,0,VALID,93.5317,VALID,0,VALID,21.3608,VALID,6,VALID,0,
2013-06-30, 00:52:05,VALID,918.926,VALID,0,VALID,93.4936,VALID,0,VALID,21.3608,VALID,6,VALID,0,
2013-06-30, 00:53:05,VALID,918.9,VALID,0,VALID,93.4402,VALID,0,VALID,21.3201,VALID,6,VALID,0,
2013-06-30, 00:54:05,VALID,918.876,VALID,0,VALID,93.4707,VALID,0,VALID,21.3608,VALID,6,VALID,0,
2013-06-30, 00:55:05,VALID,918.82,VALID,0,VALID,93.4326,VALID,0,VALID,21.3412,VALID,6,VALID,0,
2013-06-30, 00:56:05,VALID,918.751,VALID,0,VALID,93.4097,VALID,0,VALID,21.3201,VALID,24,VALID,0,
2013-06-30, 00:57:05,VALID,918.729,VALID,0,VALID,93.4555,VALID,0,VALID,21.3217,VALID,24,VALID,0,
2013-06-30, 00:58:05,VALID,918.693,VALID,0,VALID,93.4936,VALID,0,VALID,21.3022,VALID,24,VALID,0,
2013-06-30, 00:59:05,VALID,918.615,VALID,0,VALID,93.5774,VALID,0,VALID,21.2811,VALID,24,VALID,0,
2013-06-30, 01:00:05,VALID,918.581,VALID,0,VALID,93.5851,VALID,0,VALID,21.2616,VALID,31,VALID,0,
2013-06-30, 01:01:05,VALID,918.574,VALID,0,VALID,93.6003,VALID,0,VALID,21.2632,VALID,31,VALID,0,
2013-06-30, 01:02:05,VALID,918.531,VALID,0,VALID,93.7451,VALID,0,VALID,21.2421,VALID,31,VALID,0,
2013-06-30, 01:03:05,VALID,918.549,VALID,0,VALID,93.6003,VALID,0,VALID,21.2242,VALID,31,VALID,0,
2013-06-30, 01:04:05,VALID,918.562,VALID,0,VALID,93.5698,VALID,0,VALID,21.1852,VALID,31,VALID,0,
2013-06-30, 01:05:05,VALID,918.583,VALID,0,VALID,93.4478,VALID,0,VALID,21.1445,VALID,31,VALID,0,
2013-06-30, 01:06:05,VALID,918.594,VALID,0,VALID,93.4707,VALID,0,VALID,21.1266,VALID,46,VALID,0,
2013-06-30, 01:07:05,VALID,918.581,VALID,0,VALID,93.5241,VALID,0,VALID,21.086,VALID,37,VALID,0,
2013-06-30, 01:08:05,VALID,918.626,VALID,0,VALID,93.425,VALID,0,VALID,21.0681,VALID,312,VALID,0,
2013-06-30, 01:09:05,VALID,918.604,VALID,0,VALID,93.4478,VALID,0,VALID,21.0275,VALID,14,VALID,0,
2013-06-30, 01:10:05,VALID,918.576,VALID,0,VALID,93.4859,VALID,0,VALID,21.0486,VALID,20,VALID,0,
2013-06-30, 01:11:05,VALID,918.581,VALID,0,VALID,93.5241,VALID,0,VALID,21.0681,VALID,15,VALID,0,
2013-06-30, 01:12:05,VALID,918.572,VALID,0,VALID,93.5622,VALID,0,VALID,21.0681,VALID,7,VALID,0,
2013-06-30, 01:13:05,VALID,918.537,VALID,0,VALID,93.425,VALID,0,VALID,21.0876,VALID,7,VALID,0,
2013-06-30, 01:14:05,VALID,918.508,VALID,0,VALID,93.4097,VALID,0,VALID,21.0876,VALID,7,VALID,0,
2013-06-30, 01:15:05,VALID,918.481,VALID,0,VALID,93.3335,VALID,0,VALID,21.0681,VALID,6,VALID,0,
2013-06-30, 01:16:05,VALID,918.483,VALID,0,VALID,93.3564,VALID,0,VALID,21.0876,VALID,6,VALID,0,
2013-06-30, 01:17:05,VALID,918.499,VALID,0,VALID,93.3411,VALID,0,VALID,21.0876,VALID,6,VALID,0,
2013-06-30, 01:18:05,VALID,918.486,VALID,0,VALID,93.3182,VALID,0,VALID,21.047,VALID,259,VALID,0,
2013-06-30, 01:19:05,VALID,918.501,VALID,0,VALID,93.2115,VALID,0,VALID,21.0486,VALID,259,VALID,0,
2013-06-30, 01:20:05,VALID,918.523,VALID,0,VALID,93.2877,VALID,0,VALID,21.0486,VALID,259,VALID,0,
2013-06-30, 01:21:05,VALID,918.525,VALID,0,VALID,93.3182,VALID,0,VALID,21.008,VALID,259,VALID,0,
2013-06-30, 01:22:05,VALID,918.554,VALID,0,VALID,93.4326,VALID,0,VALID,21.0486,VALID,259,VALID,0,
2013-06-30, 01:23:05,VALID,918.543,VALID,0,VALID,93.4402,VALID,0,VALID,21.0486,VALID,259,VALID,0,
2013-06-30, 01:24:05,VALID,918.588,VALID,0,VALID,93.364,VALID,0,VALID,21.008,VALID,259,VALID,0,
2013-06-30, 01:25:05,VALID,918.56,VALID,0,VALID,93.425,VALID,0,VALID,21.0096,VALID,259,VALID,0,
2013-06-30, 01:26:05,VALID,918.564,VALID,0,VALID,93.5698,VALID,0,VALID,21.0096,VALID,331,VALID,0,
2013-06-30, 01:27:05,VALID,918.621,VALID,0,VALID,93.7147,VALID,0,VALID,21.0096,VALID,346,VALID,0,
2013-06-30, 01:28:05,VALID,918.588,VALID,0,VALID,93.7147,VALID,0,VALID,20.9901,VALID,346,VALID,0,
2013-06-30, 01:29:05,VALID,918.558,VALID,0,VALID,93.7223,VALID,0,VALID,20.9706,VALID,346,VALID,0,
2013-06-30, 01:30:05,VALID,918.549,VALID,0,VALID,93.8214,VALID,0,VALID,20.9511,VALID,346,VALID,0,
2013-06-30, 01:31:05,VALID,918.535,VALID,0,VALID,93.8976,VALID,0,VALID,20.9706,VALID,346,VALID,0,
2013-06-30, 01:32:05,VALID,918.485,VALID,0,VALID,93.9434,VALID,0,VALID,20.9901,VALID,346,VALID,0,
2013-06-30, 01:33:05,VALID,918.488,VALID,0,VALID,93.8671,VALID,0,VALID,20.9706,VALID,346,VALID,0,
2013-06-30, 01:34:05,VALID,918.443,VALID,0,VALID,93.9052,VALID,0,VALID,20.9706,VALID,346,VALID,0,
2013-06-30, 01:35:05,VALID,918.426,VALID,0,VALID,94.0043,VALID,0,VALID,20.9901,VALID,346,VALID,0,
2013-06-30, 01:36:05,VALID,918.396,VALID,0,VALID,94.0348,VALID,0,VALID,21.0096,VALID,341,VALID,0,
2013-06-30, 01:37:05,VALID,918.36,VALID,0,VALID,93.9586,VALID,0,VALID,21.0096,VALID,337,VALID,0,
2013-06-30, 01:38:05,VALID,918.346,VALID,0,VALID,93.9815,VALID,0,VALID,21.0096,VALID,335,VALID,0,
2013-06-30, 01:39:05,VALID,918.334,VALID,0,VALID,93.951,VALID,0,VALID,21.008,VALID,323,VALID,0,
2013-06-30, 01:40:05,VALID,918.326,VALID,0,VALID,93.9586,VALID,0,VALID,21.0096,VALID,323,VALID,0,
2013-06-30, 01:41:05,VALID,918.304,VALID,0,VALID,93.9815,VALID,0,VALID,21.0291,VALID,323,VALID,0,
2013-06-30, 01:42:05,VALID,918.312,VALID,0,VALID,93.9967,VALID,0,VALID,21.0291,VALID,323,VALID,0,
2013-06-30, 01:43:05,VALID,918.273,VALID,0,VALID,93.9967,VALID,0,VALID,21.0486,VALID,323,VALID,0,
2013-06-30, 01:44:05,VALID,918.266,VALID,0,VALID,93.8747,VALID,0,VALID,21.0486,VALID,323,VALID,0,
2013-06-30, 01:45:05,VALID,918.254,VALID,0,VALID,93.8214,VALID,0,VALID,21.0486,VALID,323,VALID,0,
2013-06-30, 01:46:05,VALID,918.271,VALID,0,VALID,93.768,VALID,0,VALID,21.0892,VALID,318,VALID,0,
2013-06-30, 01:47:05,VALID,918.236,VALID,0,VALID,93.7147,VALID,0,VALID,21.0486,VALID,301,VALID,0,
2013-06-30, 01:48:05,VALID,918.222,VALID,0,VALID,93.7299,VALID,0,VALID,21.0486,VALID,300,VALID,0,
2013-06-30, 01:49:05,VALID,918.183,VALID,0,VALID,93.8443,VALID,0,VALID,21.0291,VALID,300,VALID,0,
2013-06-30, 01:50:05,VALID,918.19,VALID,0,VALID,93.8443,VALID,0,VALID,21.0291,VALID,300,VALID,0,
2013-06-30, 01:51:05,VALID,918.205,VALID,0,VALID,94.1111,VALID,0,VALID,21.0486,VALID,319,VALID,0,
2013-06-30, 01:52:05,VALID,918.209,VALID,0,VALID,94.3779,VALID,0,VALID,21.1071,VALID,322,VALID,0,
2013-06-30, 01:53:05,VALID,918.204,VALID,0,VALID,94.4541,VALID,0,VALID,21.1657,VALID,322,VALID,0,
2013-06-30, 01:54:05,VALID,918.169,VALID,0,VALID,94.0272,VALID,0,VALID,21.1071,VALID,349,VALID,0,
2013-06-30, 01:55:05,VALID,918.165,VALID,0,VALID,94.1034,VALID,0,VALID,21.0681,VALID,349,VALID,0,
2013-06-30, 01:56:05,VALID,918.153,VALID,0,VALID,93.9967,VALID,0,VALID,21.0291,VALID,349,VALID,0,
2013-06-30, 01:57:05,VALID,918.143,VALID,0,VALID,94.2254,VALID,0,VALID,21.0291,VALID,349,VALID,0,
2013-06-30, 01:58:05,VALID,918.082,VALID,0,VALID,94.2864,VALID,0,VALID,21.0307,VALID,349,VALID,0,
2013-06-30, 01:59:05,VALID,918.08,VALID,0,VALID,94.1949,VALID,0,VALID,20.9901,VALID,12,VALID,0,
2013-06-30, 02:00:05,VALID,918.052,VALID,0,VALID,94.1644,VALID,0,VALID,20.9316,VALID,9,VALID,0,
2013-06-30, 02:01:05,VALID,918.012,VALID,0,VALID,94.4313,VALID,0,VALID,20.9316,VALID,12,VALID,0,
2013-06-30, 02:02:05,VALID,917.973,VALID,0,VALID,94.3626,VALID,0,VALID,20.873,VALID,10,VALID,0,
2013-06-30, 02:03:05,VALID,917.96,VALID,0,VALID,94.538,VALID,0,VALID,20.873,VALID,8,VALID,0,
2013-06-30, 02:04:05,VALID,917.95,VALID,0,VALID,94.538,VALID,0,VALID,20.8129,VALID,8,VALID,0,
2013-06-30, 02:05:05,VALID,917.929,VALID,0,VALID,94.5609,VALID,0,VALID,20.8145,VALID,5,VALID,0,
2013-06-30, 02:06:05,VALID,917.961,VALID,0,VALID,94.7438,VALID,0,VALID,20.795,VALID,9,VALID,0,
2013-06-30, 02:07:05,VALID,917.938,VALID,0,VALID,94.8048,VALID,0,VALID,20.8145,VALID,8,VALID,0,
2013-06-30, 02:08:05,VALID,917.948,VALID,0,VALID,94.9573,VALID,0,VALID,20.795,VALID,8,VALID,0,
2013-06-30, 02:09:05,VALID,917.951,VALID,0,VALID,95.0106,VALID,0,VALID,20.8356,VALID,8,VALID,0,
2013-06-30, 02:10:05,VALID,917.936,VALID,0,VALID,95.0411,VALID,0,VALID,20.8356,VALID,7,VALID,0,
2013-06-30, 02:11:05,VALID,917.946,VALID,0,VALID,94.8505,VALID,0,VALID,20.756,VALID,4,VALID,0,
2013-06-30, 02:12:05,VALID,917.913,VALID,0,VALID,95.0106,VALID,0,VALID,20.7365,VALID,10,VALID,0,
2013-06-30, 02:13:05,VALID,917.924,VALID,0.2,VALID,95.0335,VALID,0,VALID,20.7365,VALID,6,VALID,0,
2013-06-30, 02:14:05,VALID,917.882,VALID,0,VALID,95.0259,VALID,0,VALID,20.6975,VALID,353,VALID,0,
2013-06-30, 02:15:05,VALID,917.91,VALID,0,VALID,95.1174,VALID,0,VALID,20.717,VALID,347,VALID,0,
2013-06-30, 02:16:05,VALID,917.851,VALID,0,VALID,95.1479,VALID,0,VALID,20.717,VALID,5,VALID,0,
2013-06-30, 02:17:05,VALID,917.85,VALID,0,VALID,95.0869,VALID,0,VALID,20.699,VALID,351,VALID,0,
2013-06-30, 02:18:05,VALID,917.876,VALID,0,VALID,95.125,VALID,0,VALID,20.6585,VALID,347,VALID,0,
2013-06-30, 02:19:05,VALID,917.897,VALID,0,VALID,95.2546,VALID,0,VALID,20.6975,VALID,348,VALID,0,
2013-06-30, 02:20:05,VALID,917.935,VALID,0,VALID,95.2698,VALID,0,VALID,20.717,VALID,360,VALID,0,
2013-06-30, 02:21:05,VALID,917.964,VALID,0,VALID,95.3232,VALID,0,VALID,20.717,VALID,360,VALID,0,
2013-06-30, 02:22:05,VALID,917.986,VALID,0,VALID,95.2775,VALID,0,VALID,20.6975,VALID,360,VALID,0,
2013-06-30, 02:23:05,VALID,917.987,VALID,0,VALID,95.3308,VALID,0,VALID,20.6975,VALID,360,VALID,0,
2013-06-30, 02:24:05,VALID,917.989,VALID,0,VALID,95.3537,VALID,0,VALID,20.6975,VALID,360,VALID,0,
2013-06-30, 02:25:05,VALID,917.979,VALID,0,VALID,95.2622,VALID,0,VALID,20.6585,VALID,360,VALID,0,
2013-06-30, 02:26:05,VALID,917.953,VALID,0,VALID,95.2622,VALID,0,VALID,20.639,VALID,360,VALID,0,
2013-06-30, 02:27:05,VALID,917.957,VALID,0,VALID,95.2241,VALID,0,VALID,20.6194,VALID,1,VALID,0,
2013-06-30, 02:28:05,VALID,917.974,VALID,0,VALID,95.2012,VALID,0,VALID,20.5804,VALID,3,VALID,0,
2013-06-30, 02:29:05,VALID,917.96,VALID,0,VALID,95.1936,VALID,0,VALID,20.5609,VALID,3,VALID,0,
2013-06-30, 02:30:05,VALID,917.967,VALID,0,VALID,95.2088,VALID,0,VALID,20.5414,VALID,3,VALID,0,
2013-06-30, 02:31:05,VALID,917.948,VALID,0,VALID,95.2165,VALID,0,VALID,20.5219,VALID,25,VALID,0,
2013-06-30, 02:32:05,VALID,917.93,VALID,0.2,VALID,95.2241,VALID,0,VALID,20.5024,VALID,25,VALID,0,
2013-06-30, 02:33:05,VALID,917.927,VALID,0,VALID,95.247,VALID,0,VALID,20.4634,VALID,25,VALID,0,
2013-06-30, 02:34:05,VALID,917.907,VALID,0,VALID,95.2851,VALID,0,VALID,20.4845,VALID,25,VALID,0,
2013-06-30, 02:35:05,VALID,917.9,VALID,0,VALID,95.2927,VALID,0,VALID,20.4244,VALID,25,VALID,0,
2013-06-30, 02:36:05,VALID,917.893,VALID,0,VALID,95.3079,VALID,0,VALID,20.4244,VALID,25,VALID,0,
2013-06-30, 02:37:05,VALID,917.888,VALID,0,VALID,95.3537,VALID,0,VALID,20.4049,VALID,25,VALID,0,
2013-06-30, 02:38:05,VALID,917.894,VALID,0,VALID,95.3689,VALID,0,VALID,20.3854,VALID,25,VALID,0,
2013-06-30, 02:39:05,VALID,917.885,VALID,0,VALID,95.3994,VALID,0,VALID,20.3659,VALID,25,VALID,0,
2013-06-30, 02:40:05,VALID,917.855,VALID,0,VALID,95.4452,VALID,0,VALID,20.3464,VALID,25,VALID,0,
2013-06-30, 02:41:05,VALID,917.803,VALID,0,VALID,95.4299,VALID,0,VALID,20.3464,VALID,25,VALID,0,
2013-06-30, 02:42:05,VALID,917.792,VALID,0,VALID,95.4833,VALID,0,VALID,20.3269,VALID,25,VALID,0,
2013-06-30, 02:43:05,VALID,917.768,VALID,0,VALID,95.4833,VALID,0,VALID,20.3269,VALID,25,VALID,0,
2013-06-30, 02:44:05,VALID,917.701,VALID,0,VALID,95.5062,VALID,0,VALID,20.3074,VALID,25,VALID,0,
2013-06-30, 02:45:05,VALID,917.682,VALID,0,VALID,95.4909,VALID,0,VALID,20.2879,VALID,25,VALID,0,
2013-06-30, 02:46:05,VALID,917.677,VALID,0,VALID,95.5062,VALID,0,VALID,20.2879,VALID,25,VALID,0,
2013-06-30, 02:47:05,VALID,917.648,VALID,0,VALID,95.5138,VALID,0,VALID,20.3089,VALID,25,VALID,0,
2013-06-30, 02:48:05,VALID,917.629,VALID,0,VALID,95.4833,VALID,0,VALID,20.2894,VALID,25,VALID,0,
2013-06-30, 02:49:05,VALID,917.638,VALID,0,VALID,95.4985,VALID,0.107441,VALID,20.2879,VALID,25,VALID,0,
2013-06-30, 02:50:05,VALID,917.63,VALID,0,VALID,95.4909,VALID,0,VALID,20.2879,VALID,25,VALID,0,
2013-06-30, 02:51:05,VALID,917.641,VALID,0,VALID,95.4757,VALID,0,VALID,20.2879,VALID,25,VALID,0,
2013-06-30, 02:52:05,VALID,917.687,VALID,0,VALID,95.4452,VALID,0,VALID,20.3089,VALID,25,VALID,0,
2013-06-30, 02:53:05,VALID,917.694,VALID,0,VALID,95.4147,VALID,0,VALID,20.2879,VALID,25,VALID,0,
2013-06-30, 02:54:05,VALID,917.68,VALID,0,VALID,95.4223,VALID,0,VALID,20.3269,VALID,25,VALID,0,
2013-06-30, 02:55:05,VALID,917.697,VALID,0,VALID,95.3689,VALID,0,VALID,20.3074,VALID,25,VALID,0,
2013-06-30, 02:56:05,VALID,917.676,VALID,0,VALID,95.3384,VALID,0,VALID,20.3074,VALID,25,VALID,0,
2013-06-30, 02:57:05,VALID,917.694,VALID,0,VALID,95.3384,VALID,0,VALID,20.3464,VALID,25,VALID,0,
2013-06-30, 02:58:05,VALID,917.694,VALID,0,VALID,95.3308,VALID,0,VALID,20.3659,VALID,25,VALID,0,
2013-06-30, 02:59:05,VALID,917.679,VALID,0,VALID,95.3156,VALID,0,VALID,20.3674,VALID,25,VALID,0,
2013-06-30, 03:00:05,VALID,917.675,VALID,0,VALID,95.2927,VALID,0,VALID,20.3464,VALID,25,VALID,0,
2013-06-30, 03:01:05,VALID,917.657,VALID,0,VALID,95.3384,VALID,0,VALID,20.3659,VALID,25,VALID,0,
2013-06-30, 03:02:05,VALID,917.662,VALID,0,VALID,95.3537,VALID,0,VALID,20.3869,VALID,25,VALID,0,
2013-06-30, 03:03:05,VALID,917.633,VALID,0,VALID,95.3384,VALID,0,VALID,20.3674,VALID,25,VALID,0,
2013-06-30, 03:04:05,VALID,917.651,VALID,0,VALID,95.3384,VALID,0,VALID,20.3674,VALID,25,VALID,0,
2013-06-30, 03:05:05,VALID,917.626,VALID,0,VALID,95.3689,VALID,0,VALID,20.3869,VALID,25,VALID,0,
2013-06-30, 03:06:05,VALID,917.644,VALID,0,VALID,95.3842,VALID,0,VALID,20.3659,VALID,25,VALID,0,
2013-06-30, 03:07:05,VALID,917.637,VALID,0,VALID,95.3842,VALID,0,VALID,20.3659,VALID,25,VALID,0,
2013-06-30, 03:08:05,VALID,917.627,VALID,0,VALID,95.3918,VALID,0,VALID,20.3659,VALID,25,VALID,0,
2013-06-30, 03:09:05,VALID,917.633,VALID,0,VALID,95.4071,VALID,0,VALID,20.3869,VALID,25,VALID,0,
2013-06-30, 03:10:05,VALID,917.643,VALID,0,VALID,95.4375,VALID,0,VALID,20.3869,VALID,25,VALID,0,
2013-06-30, 03:11:05,VALID,917.612,VALID,0,VALID,95.4452,VALID,0,VALID,20.3659,VALID,25,VALID,0,
2013-06-30, 03:12:05,VALID,917.614,VALID,0,VALID,95.4452,VALID,0,VALID,20.3659,VALID,25,VALID,0,
2013-06-30, 03:13:05,VALID,917.608,VALID,0,VALID,95.4528,VALID,0,VALID,20.3659,VALID,25,VALID,0,
2013-06-30, 03:14:05,VALID,917.6,VALID,0,VALID,95.4604,VALID,0,VALID,20.3674,VALID,25,VALID,0,
2013-06-30, 03:15:05,VALID,917.571,VALID,0,VALID,95.4757,VALID,0,VALID,20.3464,VALID,25,VALID,0,
2013-06-30, 03:16:05,VALID,917.56,VALID,0,VALID,95.5062,VALID,0,VALID,20.3659,VALID,25,VALID,0,
2013-06-30, 03:17:05,VALID,917.591,VALID,0,VALID,95.4604,VALID,0,VALID,20.3464,VALID,25,VALID,0,
2013-06-30, 03:18:05,VALID,917.58,VALID,0,VALID,95.468,VALID,0,VALID,20.3074,VALID,25,VALID,0,
2013-06-30, 03:19:05,VALID,917.532,VALID,0,VALID,95.4604,VALID,0,VALID,20.3074,VALID,25,VALID,0,
2013-06-30, 03:20:05,VALID,917.545,VALID,0,VALID,95.5062,VALID,0,VALID,20.3074,VALID,25,VALID,0,
2013-06-30, 03:21:05,VALID,917.531,VALID,0,VALID,95.5062,VALID,0,VALID,20.3074,VALID,25,VALID,0,
2013-06-30, 03:22:05,VALID,917.522,VALID,0,VALID,95.5214,VALID,0,VALID,20.3074,VALID,145,VALID,0,
2013-06-30, 03:23:05,VALID,917.513,VALID,0,VALID,95.5671,VALID,0,VALID,20.3269,VALID,154,VALID,0,
2013-06-30, 03:24:05,VALID,917.455,VALID,0,VALID,95.6281,VALID,0,VALID,20.3269,VALID,169,VALID,0,
2013-06-30, 03:25:05,VALID,917.433,VALID,0,VALID,95.6662,VALID,0,VALID,20.3464,VALID,169,VALID,0,
2013-06-30, 03:26:05,VALID,917.344,VALID,0,VALID,95.6739,VALID,0,VALID,20.3074,VALID,117,VALID,0,
2013-06-30, 03:27:05,VALID,917.382,VALID,0,VALID,95.6586,VALID,0,VALID,20.2894,VALID,145,VALID,0,
2013-06-30, 03:28:05,VALID,917.328,VALID,0,VALID,95.651,VALID,0,VALID,20.2684,VALID,140,VALID,0,
2013-06-30, 03:29:05,VALID,917.328,VALID,0,VALID,95.6586,VALID,0,VALID,20.2699,VALID,122,VALID,0,
2013-06-30, 03:30:05,VALID,917.283,VALID,0,VALID,95.651,VALID,0,VALID,20.2293,VALID,118,VALID,0,
2013-06-30, 03:31:04,VALID,917.276,VALID,0,VALID,95.6662,VALID,0,VALID,20.2309,VALID,134,VALID,0,
2013-06-30, 03:32:04,VALID,917.241,VALID,0,VALID,95.7044,VALID,0,VALID,20.2114,VALID,131,VALID,0,
2013-06-30, 03:33:04,VALID,917.246,VALID,0,VALID,95.7349,VALID,0,VALID,20.1903,VALID,139,VALID,0,
2013-06-30, 03:34:04,VALID,917.21,VALID,0.2,VALID,95.773,VALID,0,VALID,20.2098,VALID,137,VALID,0,
2013-06-30, 03:35:04,VALID,917.19,VALID,0,VALID,95.8187,VALID,0,VALID,20.1903,VALID,119,VALID,0,
2013-06-30, 03:36:04,VALID,917.176,VALID,0,VALID,95.8416,VALID,0,VALID,20.1708,VALID,122,VALID,0,
2013-06-30, 03:37:04,VALID,917.187,VALID,0,VALID,95.8492,VALID,0,VALID,20.1708,VALID,113,VALID,0,
2013-06-30, 03:38:04,VALID,917.173,VALID,0,VALID,95.8721,VALID,0,VALID,20.1513,VALID,106,VALID,0,
2013-06-30, 03:39:04,VALID,917.177,VALID,0,VALID,95.9026,VALID,0,VALID,20.1724,VALID,119,VALID,0,
2013-06-30, 03:40:04,VALID,917.201,VALID,0,VALID,95.9407,VALID,0,VALID,20.1513,VALID,135,VALID,0,
2013-06-30, 03:41:04,VALID,917.215,VALID,0,VALID,95.9788,VALID,0,VALID,20.1724,VALID,112,VALID,0,
2013-06-30, 03:42:04,VALID,917.218,VALID,0.2,VALID,96.0245,VALID,0,VALID,20.1724,VALID,130,VALID,0,
2013-06-30, 03:43:04,VALID,917.208,VALID,0,VALID,96.055,VALID,0,VALID,20.1513,VALID,92,VALID,0,
2013-06-30, 03:44:04,VALID,917.21,VALID,0,VALID,96.0855,VALID,0,VALID,20.1724,VALID,135,VALID,0,
2013-06-30, 03:45:04,VALID,917.182,VALID,0,VALID,96.1236,VALID,0,VALID,20.1708,VALID,138,VALID,0,
2013-06-30, 03:46:04,VALID,917.2,VALID,0,VALID,96.1313,VALID,0,VALID,20.1919,VALID,136,VALID,0,
2013-06-30, 03:47:04,VALID,917.17,VALID,0,VALID,96.1541,VALID,0,VALID,20.1724,VALID,147,VALID,0,
2013-06-30, 03:48:04,VALID,917.169,VALID,0,VALID,96.1923,VALID,0,VALID,20.1724,VALID,123,VALID,0,
2013-06-30, 03:49:04,VALID,917.175,VALID,0,VALID,96.1999,VALID,0,VALID,20.2114,VALID,121,VALID,0,
2013-06-30, 03:50:04,VALID,917.161,VALID,0.2,VALID,96.2228,VALID,0,VALID,20.2114,VALID,163,VALID,0,
2013-06-30, 03:51:04,VALID,917.115,VALID,0,VALID,96.2456,VALID,0,VALID,20.2098,VALID,153,VALID,0,
2013-06-30, 03:52:04,VALID,917.142,VALID,0,VALID,96.2685,VALID,0,VALID,20.2098,VALID,137,VALID,0,
2013-06-30, 03:53:04,VALID,917.086,VALID,0,VALID,96.2837,VALID,0,VALID,20.2309,VALID,155,VALID,0,
2013-06-30, 03:54:04,VALID,917.129,VALID,0,VALID,96.2837,VALID,0,VALID,20.2098,VALID,152,VALID,0,
2013-06-30, 03:55:04,VALID,917.102,VALID,0,VALID,96.3142,VALID,0,VALID,20.2114,VALID,151,VALID,0,
2013-06-30, 03:56:04,VALID,917.117,VALID,0,VALID,96.3066,VALID,0,VALID,20.2504,VALID,157,VALID,0,
2013-06-30, 03:57:04,VALID,917.143,VALID,0,VALID,96.3371,VALID,0,VALID,20.2309,VALID,148,VALID,0,
2013-06-30, 03:58:04,VALID,917.146,VALID,0.2,VALID,96.3447,VALID,0,VALID,20.2504,VALID,139,VALID,0,
2013-06-30, 03:59:04,VALID,917.161,VALID,0,VALID,96.3676,VALID,0,VALID,20.2504,VALID,152,VALID,0,
2013-06-30, 04:00:04,VALID,917.149,VALID,0,VALID,96.36,VALID,0,VALID,20.2504,VALID,162,VALID,0,
2013-06-30, 04:01:04,VALID,917.164,VALID,0,VALID,96.3752,VALID,0,VALID,20.2504,VALID,129,VALID,0,